Time,TemperatureF,DewpointF,PressureIn,WindDirection,WindDirectionDegrees,WindSpeedMPH,WindSpeedGustMPH,Humidity,HourlyPrecipIn,Conditions,Clouds,dailyrainin,SoftwareType,DateUTC
2013-09-11 00:13:00,64.0,62.0,-100.00,WSW,245,7.0,9.0,94,-99.99,,,-99.99,,2013-09-11 05:13:00,
2013-09-11 00:23:00,64.0,62.0,-100.00,WSW,245,7.0,9.0,94,-99.99,,,-99.99,,2013-09-11 05:23:00,
2013-09-11 00:43:00,65.0,62.0,-100.00,WSW,250,9.0,11.0,90,-99.99,,,-99.99,,2013-09-11 05:43:00,
2013-09-11 00:53:00,65.0,62.0,-100.00,WSW,250,9.0,11.0,90,-99.99,,,-99.99,,2013-09-11 05:53:00,
2013-09-11 01:12:00,65.0,61.0,-100.00,West,260,9.0,12.0,89,-99.99,,,-99.99,,2013-09-11 06:12:00,
2013-09-11 01:22:00,65.0,61.0,-100.00,West,260,9.0,12.0,89,-99.99,,,-99.99,,2013-09-11 06:22:00,
2013-09-11 01:42:00,63.0,61.0,-100.00,WNW,285,6.0,10.0,91,-99.99,,,-99.99,,2013-09-11 06:42:00,
2013-09-11 01:52:00,63.0,61.0,-100.00,WNW,285,6.0,10.0,91,-99.99,,,-99.99,,2013-09-11 06:52:00,
2013-09-11 02:12:00,63.0,61.0,-100.00,WNW,290,7.0,11.0,92,-99.99,,,-99.99,,2013-09-11 07:12:00,
2013-09-11 02:23:00,63.0,61.0,-100.00,WNW,290,7.0,11.0,92,-99.99,,,-99.99,,2013-09-11 07:23:00,
2013-09-11 02:42:00,64.0,61.0,-100.00,NW,305,7.0,11.0,92,-99.99,,,-99.99,,2013-09-11 07:42:00,
2013-09-11 02:53:00,64.0,61.0,-100.00,NW,305,7.0,11.0,92,-99.99,,,-99.99,,2013-09-11 07:53:00,
2013-09-11 03:12:00,63.0,61.0,-100.00,NW,310,7.0,10.0,94,-99.99,,,-99.99,,2013-09-11 08:12:00,
2013-09-11 03:22:00,63.0,61.0,-100.00,NW,310,7.0,10.0,94,-99.99,,,-99.99,,2013-09-11 08:22:00,
2013-09-11 03:42:00,62.0,61.0,-100.00,WNW,300,6.0,9.0,95,-99.99,,,-99.99,,2013-09-11 08:42:00,
2013-09-11 03:52:00,62.0,61.0,-100.00,WNW,300,6.0,9.0,95,-99.99,,,-99.99,,2013-09-11 08:52:00,
2013-09-11 04:12:00,61.0,60.0,-100.00,WNW,290,4.0,6.0,97,-99.99,,,-99.99,,2013-09-11 09:12:00,
2013-09-11 04:21:00,61.0,60.0,-100.00,WNW,290,4.0,6.0,97,-99.99,,,-99.99,,2013-09-11 09:21:00,
2013-09-11 04:43:00,59.0,59.0,-100.00,WNW,290,4.0,7.0,99,-99.99,,,-99.99,,2013-09-11 09:43:00,
2013-09-11 04:53:00,59.0,59.0,-100.00,WNW,290,4.0,7.0,99,-99.99,,,-99.99,,2013-09-11 09:53:00,
2013-09-11 05:13:00,58.0,58.0,-100.00,WNW,290,4.0,7.0,99,-99.99,,,-99.99,,2013-09-11 10:13:00,
2013-09-11 05:23:00,58.0,58.0,-100.00,WNW,290,4.0,7.0,99,-99.99,,,-99.99,,2013-09-11 10:23:00,
2013-09-11 05:43:00,57.0,56.0,-100.00,WNW,295,5.0,7.0,99,-99.99,,,-99.99,,2013-09-11 10:43:00,
2013-09-11 05:53:00,57.0,56.0,-100.00,WNW,295,5.0,7.0,99,-99.99,,,-99.99,,2013-09-11 10:53:00,
2013-09-11 06:12:00,56.0,55.0,-100.00,WNW,285,4.0,5.0,99,-99.99,,,-99.99,,2013-09-11 11:12:00,
2013-09-11 06:21:00,56.0,55.0,-100.00,WNW,285,4.0,5.0,99,-99.99,,,-99.99,,2013-09-11 11:21:00,
2013-09-11 06:42:00,55.0,55.0,-100.00,WNW,285,4.0,6.0,99,-99.99,,,-99.99,,2013-09-11 11:42:00,
2013-09-11 06:52:00,55.0,55.0,-100.00,WNW,285,4.0,6.0,99,-99.99,,,-99.99,,2013-09-11 11:52:00,
2013-09-11 07:11:00,54.0,54.0,-100.00,West,280,4.0,6.0,99,-99.99,,,-99.99,,2013-09-11 12:11:00,
2013-09-11 07:21:00,54.0,54.0,-100.00,West,280,4.0,6.0,99,-99.99,,,-99.99,,2013-09-11 12:21:00,
2013-09-11 07:42:00,54.0,54.0,-100.00,West,265,2.0,6.0,99,-99.99,,,-99.99,,2013-09-11 12:42:00,
2013-09-11 07:52:00,54.0,54.0,-100.00,West,265,2.0,6.0,99,-99.99,,,-99.99,,2013-09-11 12:52:00,
2013-09-11 08:12:00,55.0,54.0,-100.00,West,260,6.0,7.0,99,-99.99,,,-99.99,,2013-09-11 13:12:00,
2013-09-11 08:22:00,55.0,54.0,-100.00,West,260,6.0,7.0,99,-99.99,,,-99.99,,2013-09-11 13:22:00,
2013-09-11 08:42:00,58.0,58.0,-100.00,WSW,250,6.0,9.0,99,-99.99,,,-99.99,,2013-09-11 13:42:00,
2013-09-11 08:52:00,58.0,58.0,-100.00,WSW,250,6.0,9.0,99,-99.99,,,-99.99,,2013-09-11 13:52:00,
2013-09-11 09:11:00,59.0,59.0,-100.00,WSW,250,4.0,6.0,99,-99.99,,,-99.99,,2013-09-11 14:11:00,
2013-09-11 09:22:00,59.0,59.0,-100.00,WSW,250,4.0,6.0,99,-99.99,,,-99.99,,2013-09-11 14:22:00,
2013-09-11 09:42:00,60.0,60.0,-100.00,West,280,2.0,4.0,99,-99.99,,,-99.99,,2013-09-11 14:42:00,
2013-09-11 09:52:00,60.0,60.0,-100.00,West,280,2.0,4.0,99,-99.99,,,-99.99,,2013-09-11 14:52:00,
2013-09-11 10:11:00,63.0,62.0,-100.00,WSW,250,4.0,6.0,98,-99.99,,,-99.99,,2013-09-11 15:11:00,
2013-09-11 10:22:00,63.0,62.0,-100.00,WSW,250,4.0,6.0,98,-99.99,,,-99.99,,2013-09-11 15:22:00,
2013-09-11 10:33:00,63.0,62.0,-100.00,WSW,250,4.0,6.0,98,-99.99,,,-99.99,,2013-09-11 15:33:00,
2013-09-11 11:13:00,71.0,57.0,-100.00,SW,235,6.0,10.0,62,-99.99,,,-99.99,,2013-09-11 16:13:00,
2013-09-11 11:23:00,71.0,57.0,-100.00,SW,235,6.0,10.0,62,-99.99,,,-99.99,,2013-09-11 16:23:00,
2013-09-11 11:43:00,74.0,56.0,-100.00,WSW,250,9.0,14.0,54,-99.99,,,-99.99,,2013-09-11 16:43:00,
2013-09-11 11:53:00,74.0,56.0,-100.00,WSW,250,9.0,14.0,54,-99.99,,,-99.99,,2013-09-11 16:53:00,
2013-09-11 12:12:00,76.0,53.0,-100.00,West,265,9.0,17.0,46,-99.99,,,-99.99,,2013-09-11 17:12:00,
2013-09-11 12:23:00,76.0,53.0,-100.00,West,265,9.0,17.0,46,-99.99,,,-99.99,,2013-09-11 17:23:00,
2013-09-11 12:43:00,76.0,53.0,-100.00,NW,305,17.0,23.0,45,-99.99,,,-99.99,,2013-09-11 17:43:00,
2013-09-11 12:52:00,76.0,53.0,-100.00,NW,305,17.0,23.0,45,-99.99,,,-99.99,,2013-09-11 17:52:00,
2013-09-11 13:12:00,76.0,48.0,-100.00,NW,310,18.0,29.0,37,-99.99,,,-99.99,,2013-09-11 18:12:00,
2013-09-11 13:22:00,76.0,48.0,-100.00,NW,310,18.0,29.0,37,-99.99,,,-99.99,,2013-09-11 18:22:00,
2013-09-11 13:42:00,76.0,46.0,-100.00,NW,305,21.0,32.0,34,-99.99,,,-99.99,,2013-09-11 18:42:00,
2013-09-11 13:52:00,76.0,46.0,-100.00,NW,305,21.0,32.0,34,-99.99,,,-99.99,,2013-09-11 18:52:00,
2013-09-11 14:01:00,76.0,46.0,-100.00,NW,305,21.0,32.0,34,-99.99,,,-99.99,,2013-09-11 19:01:00,
2013-09-11 15:12:00,76.0,45.0,-100.00,NW,320,24.0,34.0,34,-99.99,,,-99.99,,2013-09-11 20:12:00,
2013-09-11 15:22:00,76.0,45.0,-100.00,NW,320,24.0,34.0,34,-99.99,,,-99.99,,2013-09-11 20:22:00,
2013-09-11 15:42:00,75.0,44.0,-100.00,NW,325,19.0,31.0,34,-99.99,,,-99.99,,2013-09-11 20:42:00,
2013-09-11 15:52:00,75.0,44.0,-100.00,NW,325,19.0,31.0,34,-99.99,,,-99.99,,2013-09-11 20:52:00,
2013-09-11 16:12:00,76.0,46.0,-100.00,NW,325,21.0,29.0,34,-99.99,,,-99.99,,2013-09-11 21:12:00,
2013-09-11 16:22:00,76.0,46.0,-100.00,NW,325,21.0,29.0,34,-99.99,,,-99.99,,2013-09-11 21:22:00,
2013-09-11 16:44:00,76.0,44.0,-100.00,NW,325,19.0,29.0,32,-99.99,,,-99.99,,2013-09-11 21:44:00,
2013-09-11 16:54:00,76.0,44.0,-100.00,NW,325,19.0,29.0,32,-99.99,,,-99.99,,2013-09-11 21:54:00,
2013-09-11 17:13:00,76.0,43.0,-100.00,NW,325,23.0,31.0,31,-99.99,,,-99.99,,2013-09-11 22:13:00,
2013-09-11 17:24:00,76.0,43.0,-100.00,NW,325,23.0,31.0,31,-99.99,,,-99.99,,2013-09-11 22:24:00,
2013-09-11 17:43:00,76.0,43.0,-100.00,NW,325,18.0,29.0,31,-99.99,,,-99.99,,2013-09-11 22:43:00,
2013-09-11 17:54:00,76.0,43.0,-100.00,NW,325,18.0,29.0,31,-99.99,,,-99.99,,2013-09-11 22:54:00,
2013-09-11 18:12:00,75.0,43.0,-100.00,NNW,335,14.0,29.0,32,-99.99,,,-99.99,,2013-09-11 23:12:00,
2013-09-11 18:22:00,75.0,43.0,-100.00,NNW,335,14.0,29.0,32,-99.99,,,-99.99,,2013-09-11 23:22:00,
2013-09-11 18:42:00,75.0,44.0,-100.00,NNW,340,15.0,26.0,33,-99.99,,,-99.99,,2013-09-11 23:42:00,
2013-09-11 18:53:00,75.0,44.0,-100.00,NNW,340,15.0,26.0,33,-99.99,,,-99.99,,2013-09-11 23:53:00,
2013-09-11 19:11:00,74.0,43.0,-100.00,NNW,340,13.0,24.0,33,-99.99,,,-99.99,,2013-09-12 00:11:00,
2013-09-11 19:22:00,74.0,43.0,-100.00,NNW,340,13.0,24.0,33,-99.99,,,-99.99,,2013-09-12 00:22:00,
2013-09-11 19:42:00,72.0,44.0,-100.00,North,350,12.0,16.0,36,-99.99,,,-99.99,,2013-09-12 00:42:00,
2013-09-11 19:52:00,72.0,44.0,-100.00,North,350,12.0,16.0,36,-99.99,,,-99.99,,2013-09-12 00:52:00,
2013-09-11 20:11:00,70.0,43.0,-100.00,NNW,345,7.0,14.0,39,-99.99,,,-99.99,,2013-09-12 01:11:00,
2013-09-11 20:22:00,70.0,43.0,-100.00,NNW,345,7.0,14.0,39,-99.99,,,-99.99,,2013-09-12 01:22:00,
2013-09-11 20:42:00,67.0,44.0,-100.00,North,355,7.0,11.0,43,-99.99,,,-99.99,,2013-09-12 01:42:00,
2013-09-11 20:52:00,67.0,44.0,-100.00,North,355,7.0,11.0,43,-99.99,,,-99.99,,2013-09-12 01:52:00,
2013-09-11 21:12:00,66.0,47.0,-100.00,North,5,7.0,11.0,50,-99.99,,,-99.99,,2013-09-12 02:12:00,
2013-09-11 21:22:00,66.0,47.0,-100.00,North,5,7.0,11.0,50,-99.99,,,-99.99,,2013-09-12 02:22:00,
2013-09-11 21:33:00,66.0,47.0,-100.00,North,5,7.0,11.0,50,-99.99,,,-99.99,,2013-09-12 02:33:00,
2013-09-11 22:11:00,63.0,49.0,-100.00,North,355,4.0,7.0,62,-99.99,,,-99.99,,2013-09-12 03:11:00,
2013-09-11 22:22:00,63.0,49.0,-100.00,North,355,4.0,7.0,62,-99.99,,,-99.99,,2013-09-12 03:22:00,
2013-09-11 22:34:00,63.0,49.0,-100.00,North,355,4.0,7.0,62,-99.99,,,-99.99,,2013-09-12 03:34:00,
2013-09-11 23:14:00,60.0,51.0,-100.00,North,350,3.0,6.0,73,-99.99,,,-99.99,,2013-09-12 04:14:00,
2013-09-11 23:24:00,60.0,51.0,-100.00,North,350,3.0,6.0,73,-99.99,,,-99.99,,2013-09-12 04:24:00,
2013-09-11 23:44:00,56.0,51.0,-100.00,NW,325,4.0,5.0,83,-99.99,,,-99.99,,2013-09-12 04:44:00,
2013-09-11 23:54:00,56.0,51.0,-100.00,NW,325,4.0,5.0,83,-99.99,,,-99.99,,2013-09-12 04:54:00,